Weather History for Alpena, MI

Change the Weather History Date:

Tuesday, November 23, 2010

  Actual Average Record
Temperature  
Mean Temperature 44 °F 33 °F  
Max Temperature 57 °F 40 °F 65 °F (1931)
Min Temperature 30 °F 26 °F 0 °F (1989)
Degree Days  
Heating Degree Days 21 32  
Month to date heating degree days 584 645  
Since 1 July heating degree days 1392 1589  
Moisture  
Dew Point 29 °F    
Average Humidity 75    
Maximum Humidity 86    
Minimum Humidity 63    
Precipitation  
Precipitation T in 0.07 in 0.65 in (1955)
Month to date precipitation 0.31 1.63  
Year to date precipitation 24.86 25.94  
Snow  
Snow 0.10 in 0.40 in 6.90 in (1970)
Month to date snowfall 0.2 4.9  
Since 1 July snowfall 0.2 5.3  
Snow Depth 0.00 in    
Sea Level Pressure  
Sea Level Pressure 29.87 in    
Wind  
Wind Speed 13 mph (West)    
Max Wind Speed 25 mph    
Max Gust Speed 37 mph    
Visibility 10 miles    
Events Snow    
T = Trace of Precipitation, MM = Missing Value Source: NWS Daily Summary

Daily Weather History Graph

Daily Weather History Graph

Search for Another Location

Airport:

Trip Planner

Search our weather history database for the weather conditions in past years. The results will help you decide how hot, cold, wet, or windy it might be!

Date:

Astronomy

Nov. 23, 2010 Rise Set
Actual Time 7:42 AM EST 4:58 PM EST
Civil Twilight 7:10 AM EST 5:30 PM EST
Nautical Twilight 6:33 AM EST 6:07 PM EST
Astronomical Twilight 5:58 AM EST 6:42 PM EST
Moon 6:34 PM EST (11/23) 9:44 AM EST (11/23)
Length of Visible Light 10h 20m
Length of Day
9h 15m
Waning Gibbous, 96% of the Moon is Illuminated
Nov 23
Waning Gibbous
Nov 28
Last Quarter
Dec 5
New
Dec 13
First Quarter
Dec 21
Full

Hourly Weather History & Observations

Time (EST) Temp. Windchill Dew Point Humidity Pressure Visibility Wind Dir Wind Speed Gust Speed Precip Events Conditions
12:54 AM 57.0 °F - 53.1 °F 87% 29.53 in 10.0 mi SSW 9.2 mph - N/A   Clear
1:54 AM 57.0 °F - 53.1 °F 87% 29.54 in 10.0 mi WSW 8.1 mph - N/A   Mostly Cloudy
2:02 AM 55.4 °F - 51.8 °F 88% 29.54 in 10.0 mi WSW 10.4 mph 24.2 mph N/A   Overcast
2:20 AM 53.6 °F - 44.6 °F 72% 29.55 in 10.0 mi WSW 18.4 mph 28.8 mph N/A   Mostly Cloudy
2:54 AM 51.1 °F - 43.0 °F 74% 29.57 in 10.0 mi West 15.0 mph 27.6 mph N/A   Partly Cloudy
3:18 AM 50.0 °F - 41.0 °F 71% 29.59 in 10.0 mi WSW 10.4 mph 26.5 mph N/A   Mostly Cloudy
3:54 AM 46.9 °F - 39.0 °F 74% 29.61 in 10.0 mi West 18.4 mph 31.1 mph N/A   Overcast
4:54 AM 44.1 °F 37.7 °F 35.1 °F 71% 29.63 in 10.0 mi West 12.7 mph 23.0 mph N/A   Overcast
5:20 AM 42.8 °F 37.0 °F 33.8 °F 70% 29.62 in 10.0 mi WSW 10.4 mph 19.6 mph N/A   Overcast
5:54 AM 43.0 °F 37.7 °F 34.0 °F 71% 29.65 in 10.0 mi WSW 9.2 mph 16.1 mph N/A   Overcast
6:14 AM 42.8 °F 35.1 °F 30.2 °F 61% 29.64 in 10.0 mi West 16.1 mph 25.3 mph N/A   Overcast
6:54 AM 41.0 °F 33.5 °F 30.0 °F 65% 29.68 in 10.0 mi WSW 13.8 mph 26.5 mph N/A   Overcast
7:17 AM 39.2 °F 31.2 °F 30.2 °F 70% 29.67 in 10.0 mi West 13.8 mph 24.2 mph N/A   Overcast
7:54 AM 37.0 °F 25.6 °F 26.1 °F 65% 29.72 in 10.0 mi WSW 24.2 mph 33.4 mph 0.00 in   Overcast
8:04 AM 37.4 °F 27.8 °F 24.8 °F 60% 29.71 in 10.0 mi WSW 17.3 mph 36.8 mph N/A   Overcast
8:54 AM 36.0 °F 25.3 °F 25.0 °F 64% 29.76 in 10.0 mi West 19.6 mph 33.4 mph N/A   Overcast
9:03 AM 35.6 °F 25.5 °F 24.8 °F 65% 29.75 in 10.0 mi West 17.3 mph 31.1 mph N/A   Overcast
9:54 AM 34.0 °F 23.4 °F 23.0 °F 64% 29.79 in 10.0 mi West 17.3 mph 33.4 mph N/A   Mostly Cloudy
10:54 AM 34.0 °F 24.2 °F 23.0 °F 64% 29.84 in 10.0 mi West 15.0 mph 24.2 mph N/A   Overcast
11:54 AM 34.0 °F 25.0 °F 24.1 °F 67% 29.86 in 10.0 mi West 12.7 mph 26.5 mph N/A   Overcast
12:54 PM 34.0 °F 25.0 °F 24.1 °F 67% 29.89 in 9.0 mi West 12.7 mph 20.7 mph 0.00 in Snow Light Snow
1:36 PM 33.8 °F 23.9 °F 23.0 °F 65% 29.89 in 9.0 mi West 15.0 mph 29.9 mph 0.00 in Snow Light Snow
1:54 PM 34.0 °F 25.0 °F 24.1 °F 67% 29.92 in 9.0 mi West 12.7 mph 26.5 mph 0.00 in Snow Light Snow
2:17 PM 33.8 °F 24.3 °F 24.8 °F 70% 29.92 in 9.0 mi West 13.8 mph 25.3 mph 0.00 in Snow Light Snow
2:54 PM 34.0 °F 23.4 °F 25.0 °F 70% 29.96 in 10.0 mi West 17.3 mph 28.8 mph 0.00 in   Mostly Cloudy
3:54 PM 33.1 °F 25.5 °F 26.1 °F 75% 30.01 in 9.0 mi West 9.2 mph 21.9 mph 0.00 in   Mostly Cloudy
4:06 PM 33.8 °F 24.8 °F 24.8 °F 70% 29.99 in 10.0 mi WNW 12.7 mph 21.9 mph N/A   Overcast
4:54 PM 32.0 °F 23.0 °F 25.0 °F 75% 30.06 in 6.0 mi WNW 11.5 mph 24.2 mph 0.00 in Snow Light Snow
5:33 PM 30.2 °F 22.6 °F 24.8 °F 80% 30.06 in 10.0 mi WNW 8.1 mph - 0.00 in   Overcast
5:47 PM 30.2 °F 21.9 °F 24.8 °F 80% 30.07 in 9.0 mi WNW 9.2 mph 17.3 mph 0.00 in Snow Light Snow
5:54 PM 30.9 °F 22.2 °F 24.1 °F 76% 30.10 in 9.0 mi WNW 10.4 mph 16.1 mph 0.00 in Snow Light Snow
6:54 PM 30.9 °F 21.2 °F 18.0 °F 59% 30.14 in 10.0 mi WNW 12.7 mph 19.6 mph 0.00 in   Overcast
7:54 PM 30.0 °F 20.5 °F 19.0 °F 64% 30.18 in 10.0 mi NW 11.5 mph 21.9 mph N/A   Overcast
8:54 PM 30.0 °F 21.7 °F 19.0 °F 64% 30.21 in 10.0 mi WNW 9.2 mph 17.3 mph 0.00 in   Overcast
9:44 PM 30.2 °F 24.3 °F 19.4 °F 64% 30.20 in 10.0 mi WNW 5.8 mph - N/A   Overcast
9:54 PM 30.0 °F 20.0 °F 19.0 °F 64% 30.24 in 10.0 mi NW 12.7 mph 21.9 mph N/A   Overcast
10:51 PM 30.2 °F 20.8 °F 19.4 °F 64% 30.23 in 10.0 mi WNW 11.5 mph - N/A   Overcast
10:54 PM 30.0 °F 22.4 °F 19.9 °F 66% 30.26 in 10.0 mi WNW 8.1 mph 18.4 mph N/A   Overcast
11:54 PM 30.0 °F 23.2 °F 19.0 °F 64% 30.30 in 10.0 mi NW 6.9 mph 17.3 mph N/A   Overcast